SL-3 DEB

Satellite information

Favourite Embed

Satellite Type and Status

DEBRISIN ORBIT

Key statistics

Satellite SL-3 DEB at a glance.

Uptime

18675

Days in orbit

Revolutions

≈ 14.1

Per day

Orbit

LEO

Low Earth Orbit

Inclination

81.2

Latest

Satellite identification and parameters

Extended collection of information and parameters for SL-3 DEB.

Object identification

Identified? True

Debris? True

Object name: SL-3 DEB

International designator: 1974-083C

Object number (NORAD): 15521

Object ID (CCSDS): 15521

Country: COMMONWEALTH OF INDEPENDENT STATES (CIS)

Current information (Y/N): Y

RCS size: SMALL

Orbital parameters

Period: 102.154 minutes

Inclination: 81.2157 deg

SMA: 7238.74 km

Apoapsis: 899.509 km

Periapsis: 821.701 km

RAAN: 10.138 deg

Eccentricy: 0.00537436

Argument of periapsis: 283.1336 deg

Mean anomaly: 196.0428 deg

Mean motion: 14.09640266 rev/day

Mean motion (dot): 0.00000192 rev/day2

B* drag term: 0.00010133815 1/REarth

Two-line elements (TLE)

Creation date: Dec. 12, 2025, 3:16 a.m.

Reference frame: TEME

Reference center: EARTH

Epoch: Dec. 11, 2025, 7:52 p.m. UTC

TLE line 0: 0 SL-3 DEB

TLE line 1: 1 15521U 74083C 25345.82801225 .00000192 00000-0 10134-3 0 9997

TLE line 2: 2 15521 81.2157 10.1380 0053744 283.1336 196.0428 14.09640266631932

Live tracking on map

Real-time ground track for satellite SL-3 DEB.

In-orbit conjunctions

A list of the most updated potential collisions computed for object SL-3 DEB.

Target Orbit TCA Probability of collision Miss distance Type
NOAA 16 DEB SSO 2025-04-20 18:04:42 0.0001121084 337.0 (m) DEBRIS
METEOR 1-15 LEO 2024-11-02 10:19:27 0.0002680995 906.0 (m) PAYLOAD

Associated space launch

The Meteor-1 series was the first series of Soviet meteorological satellites.

SL-3 DEB was lifted into orbit during the mission ‘Vostok 8A92M | Meteor-1 19 (33L)’, on board a Vostok 8A92M space rocket.

The launch took place on Oct. 28, 1974, 10:17 a.m. from 43/4 (43R).

For more information about the launch, click the button.

Launch to space Vostok 8A92M | Meteor-1 19 (33L)
Vostok 8A92M | Meteor-1 19 (33L)

Agency: N/A

Status: Launch Successful

Launch date: Oct. 28, 1974, 10:17 a.m. UTC

Rocket: Vostok 8A92M

Launch pad: 43/4 (43R)

Location: Plesetsk Cosmodrome, Russian Federation

...

Latest news about this satellite

There are no fresh news available about this satellite. Check back as we update our databases every day.


Newsletter sign-up

Weekly statistics, charts and insights to help you stay on top of the space industry.